パンスターズ彗星

C/2019 A9 ( PanSTARRS )

English version
Home page
Updated on February 8, 2019

---------------------------------------------------------------------

・ プロフィール

発見日 2019年1月14日
発見光度 20.3等
発見者 Pan-STARRS 1 telescope (Haleakala)

・ 軌道要素

Epoch 2019 July 16.0 TT = JDT 2458680.5
T 2019 July 26.52112 TT                                 MPCW
q   1.4264579            (2000.0)            P               Q
z  +0.0257470      Peri.  237.79752     -0.16007319     +0.07116375
                   Node   278.36749     +0.80754467     -0.56414730
e   0.9632730      Incl.   84.34292     -0.56766908     -0.82260170
From 123 observations 2018 Dec. 18-2019 Feb. 6, mean residual 0".4.

・ 星図

・ 光度変化

        m1 = 13.5 + 5 logΔ + 10.0 log r

---------------------------------------------------------------------

軌道要素はM.P.E.C. 2019-C53に掲載されたものです。
星図はステラナビゲータ Ver.10 (アストロアーツ) で作成したものです。
光度グラフはComet for Windowsで作成したものです。

---------------------------------------------------------------------

Copyright(C) Seiichi Yoshida (comet@aerith.net). All rights reserved.